Location: Atherton
(17.2661°S, 145.4859°E)
Time: 07:40:17
(UTC+10:00)

Tiangong - Visible Passes

Search period start: 10 February 2026 00:00
Search period end: 20 February 2026 00:00
Orbit: 386 x 393 km, 41.5° (Epoch: 9 February)

Date Brightness Start Highest point End Pass type
(mag) Time Alt. Az. Time Alt. Az. Time Alt. Az.
10 Feb 0.2 04:35:25 17° NE 04:35:37 17° NE 04:37:50 10° E visible
11 Feb -2.0 05:12:48 29° WNW 05:14:14 63° SW 05:17:28 10° SE visible
12 Feb 0.3 04:17:44 24° ESE 04:17:44 24° ESE 04:19:14 10° ESE visible
13 Feb -0.5 04:54:53 23° SSW 04:54:53 23° SSW 04:57:29 10° SSE visible
14 Feb 1.4 03:59:36 10° SE 03:59:36 10° SE 03:59:41 10° SE visible
